This demonstration page uses our WeatherBlox Daily Observations layout. Learn more.

Hourly Observations for October 14, 2018

Temp ( °F °C ) Dew Point ( °F °C ) Humidity (%) Winds ( mph kmh ) Pressure ( in mb ) Visibility ( mi km ) Precip ( " mm )
12:15 am 00:15 Cloudy with Light Rain 42 5.7 42 5.7 100 100 NNE 20 31 29.94 1014 5 8.0467 0.01 0.254
12:35 am 00:35 Cloudy with Light Rain 41 5.1 41 5.1 100 100 NNE 21 33 29.94 1014 3 4.82802 0.02 0.508
12:55 am 00:55 Cloudy with Light Rain 40 4.6 40 4.6 100 100 NNE 22 35 29.97 1015 4 6.43736 0.02 0.508
1:15 am 01:15 Cloudy with Mist and Fog 40 4.3 40 4.3 100 100 NNE 25 41 29.97 1015 5 8.0467 0 0
1:35 am 01:35 Cloudy with Mist and Fog 39 3.7 39 3.7 100 100 NNE 25 41 30 1016 5 8.0467 0 0
1:55 am 01:55 Cloudy with Light Rain 38 3.5 38 3.5 100 100 NNE 24 39 30 1016 5 8.0467 0 0
2:15 am 02:15 Cloudy with Light Rain 38 3.5 38 3.5 100 100 NNE 22 35 30.03 1017 5 8.0467 0 0
2:35 am 02:35 Cloudy with Light Rain 37 3 37 3 100 100 NNE 22 35 30.03 1017 4 6.43736 0 0
2:55 am 02:55 Cloudy with Light Rain 37 2.9 37 2.8 99 99 NNE 23 37 30.03 1017 5 8.0467 0 0
3:15 am 03:15 Cloudy with Light Rain 37 2.8 37 2.8 100 100 NNE 20 31 30.03 1017 5 8.0467 0.01 0.254
3:35 am 03:35 Cloudy with Light Rain 37 2.8 37 2.8 100 100 N 23 37 30.03 1017 4 6.43736 0.03 0.762
3:55 am 03:55 Cloudy with Light Rain 37 2.5 37 2.5 100 100 NNE 28 44 30.03 1017 7 11.26538 0.03 0.762
4:15 am 04:15 Cloudy with Light Rain 35 1.6 35 1.6 100 100 N 29 46 30.09 1019 7 11.26538 0 0
4:35 am 04:35 Cloudy with Light Drizzle 34 1.3 34 1.2 99 99 N 29 46 30.12 1020 10 16.0934 0 0
4:55 am 04:55 Cloudy with Light Rain 34 1 33 0.7 98 98 N 25 41 30.12 1020 7 11.26538 0 0
5:15 am 05:15 Cloudy with Light Rain 33 0.5 32 0.2 98 98 N 23 37 30.15 1021 4 6.43736 0 0
5:35 am 05:35 Cloudy with Light Wintry Mix 32 0.2 32 0.1 99 99 N 24 39 30.15 1021 4 6.43736 0 0
5:55 am 05:55 Cloudy with Light Wintry Mix 32 0 31 -0.3 98 98 N 25 41 30.18 1022 10 16.0934 0 0
6:15 am 06:15 Cloudy with Light Wintry Mix 32 -0.1 30 -1.1 93 93 N 28 44 30.21 1023 10 16.0934 0 0
6:35 am 06:35 Cloudy 31 -0.3 30 -1.2 94 94 N 29 46 30.21 1023 10 16.0934 0 0
6:55 am 06:55 Cloudy with Light Wintry Mix 31 -0.5 30 -1.1 96 96 N 18 30 30.24 1024 10 16.0934 0 0
7:15 am 07:15 Windy with Snow Likely 31 -0.7 30 -1.1 97 97 N 25 41 30.24 1024 4 6.43736 0 0
7:35 am 07:35 Windy with Snow Likely 30 -1 30 -1.2 99 99 N 25 41 30.24 1024 5 8.0467 0 0
7:55 am 07:55 Windy with Snow Likely 30 -1.2 29 -1.5 98 98 N 23 37 30.24 1024 3 4.82802 0 0
8:15 am 08:15 Cloudy with Light Snow 30 -1.2 30 -1.2 100 100 N 18 30 30.24 1024 1.75 2.816345 0 0
8:35 am 08:35 Cloudy with Light Snow 30 -1.2 30 -1.2 100 100 N 18 30 30.24 1024 2 3.21868 0 0
8:55 am 08:55 Cloudy with Light Snow 30 -1.2 30 -1.2 100 100 N 14 22 30.24 1024 1.25 2.011675 0 0
9:15 am 09:15 Cloudy with Light Snow 30 -1.2 30 -1.2 100 100 N 15 24 30.24 1024 3 4.82802 0 0
9:35 am 09:35 Cloudy with Light Snow 30 -1.1 30 -1.3 99 99 N 16 26 30.27 1025 3 4.82802 0 0
9:55 am 09:55 Cloudy with Light Wintry Mix 30 -1 30 -1.3 98 98 N 16 26 30.27 1025 7 11.26538 0 0
10:15 am 10:15 Cloudy 31 -0.8 28 -2 92 92 N 17 28 30.3 1026 10 16.0934 0 0
10:35 am 10:35 Cloudy 31 -0.5 28 -2 90 90 N 18 30 30.27 1025 10 16.0934 0 0
10:55 am 10:55 Cloudy 31 -0.5 28 -2.5 87 87 N 20 31 30.3 1026 10 16.0934 0 0
11:15 am 11:15 Cloudy 31 -0.5 29 -1.8 91 91 N 17 28 30.3 1026 10 16.0934 0 0
11:35 am 11:35 Cloudy 32 -0.2 29 -1.8 89 89 N 17 28 30.3 1026 10 16.0934 0 0
11:55 am 11:55 Cloudy 31 -0.5 28 -2.1 89 89 N 15 24 30.3 1026 10 16.0934 0 0
12:15 pm 12:15 Cloudy 32 -0.2 28 -2.3 86 86 N 17 28 30.33 1027 10 16.0934 0 0
12:35 pm 12:35 Cloudy 32 -0.1 28 -2.4 85 85 N 16 26 30.33 1027 10 16.0934 0 0
12:55 pm 12:55 Cloudy 32 -0.1 28 -2.5 84 84 N 13 20 30.33 1027 10 16.0934 0 0
1:15 pm 13:15 Cloudy 32 -0.1 27 -2.7 83 83 N 15 24 30.33 1027 10 16.0934 0 0
1:35 pm 13:35 Cloudy 32 -0.2 27 -2.9 82 82 NNW 15 24 30.33 1027 10 16.0934 0 0
1:55 pm 13:55 Cloudy 32 0 28 -2.5 83 83 N 15 24 30.33 1027 10 16.0934 0 0
2:15 pm 14:15 Cloudy 32 0 28 -2.5 83 83 NNW 13 20 30.33 1027 10 16.0934 0 0
2:35 pm 14:35 Cloudy 32 0 27 -2.9 81 81 N 16 26 30.3 1026 10 16.0934 0 0
2:55 pm 14:55 Cloudy 32 0.1 26 -3.1 79 79 N 18 30 30.3 1026 10 16.0934 0 0
3:15 pm 15:15 Cloudy 32 0.1 26 -3.3 78 78 NNW 16 26 30.3 1026 10 16.0934 0 0
3:35 pm 15:35 Cloudy 32 0 27 -3 80 80 NNW 15 24 30.3 1026 10 16.0934 0 0
3:55 pm 15:55 Cloudy 32 0 25 -3.8 76 76 N 18 30 30.3 1026 10 16.0934 0 0
4:15 pm 16:15 Cloudy 32 0 26 -3.6 77 77 N 14 22 30.3 1026 10 16.0934 0 0
4:35 pm 16:35 Cloudy 32 -0.2 25 -4.1 75 75 NNW 17 28 30.33 1027 10 16.0934 0 0
4:55 pm 16:55 Cloudy 32 -0.2 24 -4.2 75 75 N 17 28 30.33 1027 10 16.0934 0 0
5:15 pm 17:15 Cloudy 32 -0.2 25 -4.1 75 75 N 17 28 30.33 1027 10 16.0934 0 0
5:35 pm 17:35 Cloudy 31 -0.5 24 -4.2 76 76 N 13 20 30.33 1027 10 16.0934 0 0
5:55 pm 17:55 Cloudy 31 -0.5 24 -4.3 76 76 N 14 22 30.36 1028 10 16.0934 0 0
6:15 pm 18:15 Cloudy 31 -0.6 24 -4.6 75 75 N 16 26 30.33 1027 10 16.0934 0 0
6:35 pm 18:35 Cloudy 31 -0.7 24 -4.5 76 76 N 12 19 30.36 1028 10 16.0934 0 0
6:55 pm 18:55 Cloudy 31 -0.8 24 -4.5 76 76 N 12 19 30.36 1028 10 16.0934 0 0
7:15 pm 19:15 Cloudy 30 -1 24 -4.5 77 77 N 10 17 30.36 1028 10 16.0934 0 0
7:35 pm 19:35 Cloudy 30 -1 24 -4.2 79 79 N 15 24 30.36 1028 10 16.0934 0 0
7:55 pm 19:55 Cloudy 30 -1 24 -4.6 77 77 N 13 20 30.36 1028 10 16.0934 0 0
8:15 pm 20:15 Cloudy 30 -1 24 -4.6 77 77 N 13 20 30.36 1028 10 16.0934 0 0
8:35 pm 20:35 Cloudy 30 -1 24 -4.6 77 77 NNW 14 22 30.42 1030 10 16.0934 0 0
8:55 pm 20:55 Cloudy 30 -1.1 24 -4.5 78 78 NNW 9 15 30.42 1030 10 16.0934 0 0
9:15 pm 21:15 Cloudy 30 -1.1 24 -4.7 77 77 N 14 22 30.45 1031 10 16.0934 0 0
9:35 pm 21:35 Cloudy 30 -1.2 23 -5.2 75 75 NNW 10 17 30.45 1031 10 16.0934 0 0
9:55 pm 21:55 Cloudy 30 -1.3 23 -4.9 77 77 N 9 15 30.45 1031 10 16.0934 0 0
10:15 pm 22:15 Cloudy 29 -1.5 23 -5 77 77 N 12 19 30.45 1031 10 16.0934 0 0
10:35 pm 22:35 Cloudy 29 -1.5 23 -5.2 76 76 N 10 17 30.48 1032 10 16.0934 0 0
10:55 pm 22:55 Cloudy 29 -1.5 23 -5.2 76 76 N 8 13 30.48 1032 10 16.0934 0 0
11:15 pm 23:15 Cloudy 29 -1.5 23 -5 77 77 N 9 15 30.48 1032 10 16.0934 0 0
11:35 pm 23:35 Cloudy 29 -1.5 24 -4.7 79 79 NNW 6 9 30.48 1032 10 16.0934 0 0
11:55 pm 23:55 Cloudy 30 -1.2 23 -5 76 76 NNW 8 13 30.48 1032 10 16.0934 0 0

Powered by AerisWeather